Flag for Germany Weather past 2 weeks in Schwäbisch Gmünd, Baden-Württemberg, Germany

Now
60 °F

Passing clouds.


Feels Like: 60 °F
Forecast: 46 / 67 °F
Wind: 5 mph from East

Location: Stoetten

Current Time: Oct 2, 2014 at 12:26:03 PM

Latest Report: Oct 2, 2014 at 12:00 PM


Visibility: 11 mi

Pressure: 30.36 "Hg

Humidity: 75%

Dew point: 52 °F

Location of Schwäbisch GmündLocation

Historic Weather in Schwäbisch Gmünd — Graph

°F

Schwäbisch Gmünd temperature yesterday

Maximum temperature yesterday: 63 °F (at 5:00 PM)
Minimum temperature yesterday: 54 °F (at 3:00 AM)
Average temperature yesterday: 57 °F

Past Weeks' High & Low Weather Summary

 TemperatureHumidityPressure
High71 °F (Sep 29, 3:00 PM)100% (Sep 17, 11:00 AM)30.38 "Hg (Sep 17, 11:00 AM)
Low40 °F (Sep 24, 7:00 AM)42% (Sep 29, 4:00 PM)29.84 "Hg (Sep 18, 4:00 PM)
Average55 °F86%30.14 "Hg
* Reported Sep 17 11:00 AM — Oct 2 11:00 AM, Schwäbisch Gmünd, Weather by CustomWeather, © 2014

Note: Actual official high and low records may vary slightly from our data, if they occured in-between our weather recording intervals... More about our weather records

Advertising

Schwäbisch Gmünd weather history for previous 24 hours

 ConditionsComfort  
Time TempWeatherWind HumidityBarometerVisibility
11:00 AM
Oct 2
58 °FScattered clouds.3 mph85%30.37 "Hg7 mi
10:00 AM56 °FFog.5 mph92%30.38 "Hg2 mi
9:00 AM55 °FSunny.3 mph93%30.38 "Hg5 mi
8:00 AM53 °FSunny.2 mph97%30.38 "Hg6 mi
7:00 AM53 °FClear.2 mph94%30.37 "Hg6 mi
6:00 AM53 °FClear.2 mph97%30.37 "Hg6 mi
5:00 AM53 °FFog.2 mph97%30.37 "Hg3 mi
4:00 AM53 °FFog.1 mph97%30.37 "Hg3 mi
3:00 AM54 °FFog.2 mph99%30.37 "Hg1 mi
2:00 AM54 °FFog.1 mph95%30.37 "Hg2 mi
1:00 AM55 °FFog.1 mph93%30.36 "Hg4 mi
12:00 AM56 °FOvercast.2 mph90%30.36 "Hg6 mi
11:00 PM
Oct 1
56 °FFog.2 mph92%30.36 "Hg4 mi
10:00 PM56 °FFog.2 mph94%30.35 "Hg4 mi
9:00 PM56 °FOvercast.2 mph92%30.34 "Hg16 mi
8:00 PM57 °FPassing clouds.2 mph90%30.33 "Hg19 mi
7:00 PM57 °FPassing clouds.2 mph90%30.32 "Hg28 mi
6:00 PM58 °FPartly sunny.1 mph84%30.31 "Hg28 mi
5:00 PM63 °FPartly sunny.5 mph73%30.27 "Hg16 mi
4:00 PM61 °FScattered clouds.5 mph78%30.28 "Hg12 mi
3:00 PM60 °FPartly sunny.N/A85%30.29 "Hg9 mi
2:00 PM62 °FPartly sunny.3 mph80%30.29 "Hg5 mi
1:00 PM59 °FFog.N/A89%30.32 "Hg2 mi
12:00 PM56 °FFog.3 mph94%30.33 "Hg1 mi
Weather by CustomWeather, © 2014

See weather overviewHow to use our weather pages